AO-07 1 07530U 74089B 23145.61650687 -.00000027 00000-0 12216-3 0 9992 2 07530 101.9463 132.1422 0012614 106.1796 14.4144 12.53664351220581 UO-11 1 14781U 84021B 23145.48288855 .00001512 00000-0 18401-3 0 9995 2 14781 97.6561 123.2962 0006545 279.0433 81.0041 14.84837020111778 AO-16 1 20439U 90005D 23145.89867341 .00000195 00000-0 88036-4 0 9997 2 20439 98.8824 135.5592 0009618 269.0909 148.5029 14.33099463741966 LO-19 1 20442U 90005G 23144.36543155 .00000215 00000-0 95062-4 0 9996 2 20442 98.8425 120.3744 0010639 246.5871 113.4194 14.33253139741934 HUBBLE 1 20580U 90037B 23145.83714250 .00003757 00000-0 19640-3 0 9994 2 20580 28.4703 56.6978 0002574 133.2645 292.5801 15.13106883618338 MET-2/21 1 22782U 93055A 23144.34943005 .00000051 00000-0 31942-4 0 9994 2 22782 82.5475 103.6859 0023621 109.5718 44.3687 13.83886065501153 AO-27 1 22825U 93061C 23145.68259524 .00000134 00000-0 69189-4 0 9999 2 22825 98.8424 188.2084 0009343 129.2904 230.9108 14.30301482547345 IO-26 1 22826U 93061D 23145.69169779 .00000155 00000-0 76727-4 0 9992 2 22826 98.8370 188.0814 0010030 116.9221 243.2986 14.30661760547591 FO-29 1 24278U 96046B 23145.86053052 .00000018 00000-0 51330-4 0 9997 2 24278 98.5273 127.4611 0351186 114.7345 249.0771 13.53144791322162 NOAA-15 1 25338U 98030A 23145.77900955 .00000246 00000-0 12043-3 0 9993 2 25338 98.6070 175.2177 0010745 26.0025 334.1693 14.26320548302060 GO-32 1 25397U 98043D 23145.87440212 .00000108 00000-0 67164-4 0 9990 2 25397 98.8674 103.1400 0001354 149.5987 210.5269 14.23872628292376 ISS 1 25544U 98067A 23145.82312521 .00013516 00000-0 24287-3 0 9991 2 25544 51.6416 79.3943 0005436 19.5209 14.6217 15.50172027398320 NO-44 1 26931U 01043C 23145.69419852 .00000193 00000-0 10481-3 0 9998 2 26931 67.0514 254.9016 0007813 275.8372 84.1839 14.30915812130524 SO-50 1 27607U 02058C 23145.75815388 .00001287 00000-0 19374-3 0 9992 2 27607 64.5547 333.6898 0071066 229.1612 130.3317 14.77244652 99129 CO-55 1 27844U 03031E 23145.60507839 .00000374 00000-0 18628-3 0 9997 2 27844 98.6779 153.1931 0009675 183.7876 176.3230 14.22769759 32552 CO-57 1 27848U 03031J 23144.55316744 .00000334 00000-0 17016-3 0 9993 2 27848 98.6816 152.5812 0009171 202.3562 157.7217 14.22280957 32141 RS-22 1 27939U 03042A 23145.78838571 .00001434 00000-0 25684-3 0 9991 2 27939 98.2405 292.5858 0012080 201.9397 286.3737 14.68335226 51250 NOAA-18 1 28654U 05018A 23145.76005346 .00000246 00000-0 15578-3 0 9996 2 28654 98.9096 220.2585 0015384 84.8784 275.4143 14.12940639928400 CO-58 1 28895U 05043F 23144.58635568 .00001850 00000-0 34906-3 0 9993 2 28895 98.1505 276.8324 0017172 143.5598 216.6778 14.65590455937355 CO-65 1 32785U 08021C 23145.80025502 .00003646 00000-0 36333-3 0 9993 2 32785 97.7048 112.2399 0012427 169.2967 190.8519 14.92138280817552 AAUSAT2 1 32788U 08021F 23144.39368635 .00009716 00000-0 71634-3 0 9993 2 32788 97.5607 124.3547 0010863 80.7891 279.4563 15.03458673819535 DO-64 1 32789U 08021G 23145.61858976 .00048601 00000-0 14545-2 0 9995 2 32789 97.3044 167.2968 0007787 177.5315 182.5968 15.34355630824025 CO-66 1 32791U 08021J 23145.87413151 .00005858 00000-0 51996-3 0 9997 2 32791 97.6553 117.5852 0014023 121.5338 238.7255 14.96469606818405 RS-30 1 32953U 08025A 23145.75005204 .00000029 00000-0 13957-3 0 9994 2 32953 82.5020 331.0551 0018820 232.0089 127.9291 12.43123936680865 PRISM 1 33493U 09002B 23144.60491299 .00008861 00000-0 61008-3 0 9998 2 33493 98.2458 157.4804 0017973 123.4889 236.8056 15.06009060780193 NOAA-19 1 33591U 09005A 23145.80165414 .00000188 00000-0 12625-3 0 9995 2 33591 99.1009 191.3693 0012933 308.4263 51.5747 14.12758488736785 SRMSAT 1 37841U 11058D 23145.65873590 .00000487 00000-0 12231-3 0 9997 2 37841 19.9735 346.2328 0011858 144.1584 277.0797 14.10894604599848 HRBE 1 37855U 11061F 23144.33550577 .00022240 00000-0 71757-3 0 9996 2 37855 101.7058 92.6743 0122822 113.0925 248.3299 15.25130104632922 RS-40 1 38735U 12041C 23145.85088215 .00000028 00000-0 12929-3 0 9992 2 38735 82.4789 52.0175 0017502 349.3160 10.7545 12.42593868491034 ZACUBE-1 1 39417U 13066B 23143.83839681 .00004673 00000-0 54152-3 0 9999 2 39417 97.6843 106.3635 0055318 9.5533 350.6721 14.84823328513583 Delfi-N3xt 1 39428U 13066N 23145.75088104 .00003681 00000-0 53576-3 0 9997 2 39428 97.8331 71.3854 0109202 261.4483 97.4338 14.72476101509011 GOMX-1 1 39430U 13066Q 23145.73611635 .00002640 00000-0 46243-3 0 9996 2 39430 97.7820 38.1830 0146964 44.8471 316.4498 14.61731043506258 LO-74 1 39440U 13066AA 23144.36022383 .00003016 00000-0 39258-3 0 9997 2 39440 97.7715 93.8959 0077308 104.4015 256.5793 14.79259147510632 AO-73 1 39444U 13066AE 23144.63655946 .00004996 00000-0 55649-3 0 9998 2 39444 97.6703 109.6593 0052954 352.6442 7.3992 14.86499160512143 SPROUT 1 39770U 14029E 23145.57402422 .00018472 00000-0 14317-2 0 9993 2 39770 97.9801 272.1568 0006368 20.7818 339.3663 15.01446463488762 DTUSAT-2 1 40030U 14033W 23145.76256292 .00004217 00000-0 41197-3 0 9991 2 40030 97.9664 86.0180 0011172 14.6004 345.5535 14.92897788485167 EO-80 1 40032U 14033Y 23145.80541504 .00003692 00000-0 36131-3 0 9999 2 40032 97.9666 86.0789 0011262 16.0317 344.1256 14.92905323485158 HODOYOSHI-1 1 40299U 14070B 23145.72515321 .00010251 00000-0 32084-3 0 9996 2 40299 97.1946 208.9790 0010335 7.7362 352.4038 15.33250021475377 FIREBIRD FU3 1 40377U 15003B 23145.77551570 .00141540 00000-0 12287-2 0 9999 2 40377 99.0754 98.1871 0038741 283.3744 76.3194 15.67653025461130 FIREBIRD FU4 1 40378U 15003C 23144.37494607 .00128236 00000-0 11310-2 0 9995 2 40378 99.0780 96.7013 0039261 288.3406 71.3580 15.67278658460914 GRIFEX 1 40379U 15003D 23145.75832492 .00038515 00000-0 86973-3 0 9995 2 40379 99.0780 77.1338 0082661 350.1292 9.8321 15.39502013459934 XW-2C 1 40906U 15049H 23145.73307077 .00010291 00000-0 40301-3 0 9991 2 40906 97.4944 152.8050 0010125 233.7364 126.2939 15.25947409424970 XW-2D 1 40907U 15049J 23145.77967070 .00013190 00000-0 48785-3 0 9996 2 40907 97.4923 153.3250 0009403 224.6287 135.4196 15.27785607425066 LILACSAT-2 1 40908U 15049K 23145.76912509 .00005416 00000-0 25806-3 0 9994 2 40908 97.5252 148.8940 0012097 267.3470 92.6380 15.19486497424399 XW-2E 1 40909U 15049L 23145.86761185 .00024646 00000-0 67681-3 0 9991 2 40909 97.4539 159.4375 0009037 184.7446 175.3714 15.37191966425713 XW-2F 1 40910U 15049M 23145.72561237 .00026999 00000-0 75619-3 0 9997 2 40910 97.4631 158.5255 0009682 188.9262 171.1812 15.36552901425434 XW-2B 1 40911U 15049N 23145.77244946 .00013262 00000-0 49371-3 0 9993 2 40911 97.4903 153.7686 0009343 226.5963 133.4499 15.27569993424949 DCBB 1 40912U 15049P 23145.76907755 .00031804 00000-0 73685-3 0 9994 2 40912 97.4183 163.1350 0010884 151.8149 208.3689 15.42313568426151 IO-86 1 40931U 15052B 23144.66351274 .00001177 00000-0 73400-4 0 9992 2 40931 5.9995 254.4317 0013425 319.9155 39.9983 14.77216633413751 ATHENOXAT-1 1 41168U 15077C 23145.87135197 .00114424 00000-0 16681-2 0 9996 2 41168 14.9876 36.0528 0003656 41.6330 318.4274 15.53810832412831 ChubuSat-2 1 41338U 16012B 23145.77476982 .00003498 00000-0 24163-3 0 9997 2 41338 31.0041 1.0796 0012552 314.9589 45.0029 15.03844955399002 ChubuSat-3 1 41339U 16012C 23145.76745759 .00003155 00000-0 21814-3 0 9998 2 41339 31.0105 358.1992 0012441 322.1701 37.8061 15.03714714398993 Horyu-4 1 41340U 16012D 23145.88048595 .00006311 00000-0 39807-3 0 9995 2 41340 31.0051 326.7733 0011892 18.4422 341.6645 15.07621013399351 e-st@r-II 1 41459U 16025D 23145.84078424 .00028497 00000-0 85041-3 0 9990 2 41459 98.1886 344.8975 0110020 176.4962 183.7071 15.28726324389483 AAUSAT4 1 41460U 16025E 23144.12206130 .00108421 00000-0 16309-2 0 9995 2 41460 98.1631 354.7870 0065739 139.7893 220.8248 15.51948786390034 LO-87 1 41557U 16033B 23145.80231712 .00050619 00000-0 70020-3 0 9997 2 41557 97.3868 252.8485 0007793 211.2902 148.7890 15.56942754390144 NuSat2 1 41558U 16033C 23145.77222221 .00069463 00000-0 84605-3 0 9990 2 41558 97.4147 260.7154 0007795 205.1299 154.9580 15.60257600390475 Lapan A3 1 41603U 16040E 23145.77724684 .00002670 00000-0 11838-3 0 9994 2 41603 97.1673 172.3772 0013816 42.3465 317.8836 15.22346934384089 Pratham 1 41783U 16059A 23145.67246299 .00000780 00000-0 15658-3 0 9997 2 41783 97.8701 177.7878 0033374 169.3801 190.8114 14.63922458355685 TY-1 1 41844U 16066D 23145.82648307 .00046514 00000-0 78745-3 0 9997 2 41844 97.3689 164.5456 0011277 132.0506 228.1708 15.51352067364210 CAS-2T 1 41847U 16066G 23145.79000788 .00000818 00000-0 13254-3 0 9992 2 41847 98.5047 214.4471 0358737 264.6313 91.3859 14.39633448343583 EO-88 1 42017U 17008BX 23145.73480359 .00168817 00000-0 12641-2 0 9991 2 42017 97.2101 216.1920 0003205 170.0289 190.1039 15.72144919349938 CAS-4B 1 42759U 17034B 23145.74012789 .00009429 00000-0 47751-3 0 9996 2 42759 43.0153 240.4410 0011690 312.6788 47.3075 15.17102855328220 CAS-4A 1 42761U 17034D 23145.75630741 .00007294 00000-0 37203-3 0 9993 2 42761 43.0144 238.8842 0012477 314.1999 45.7823 15.17106492328233 NIUSat 1 42766U 17036B 23145.63077037 .00023688 00000-0 62814-3 0 9991 2 42766 97.1584 177.4659 0011211 172.7694 187.3715 15.38256048329145 Aalto 1 1 42775U 17036L 23145.64715958 .00016416 00000-0 48825-3 0 9990 2 42775 97.1536 176.3545 0010589 174.9547 185.1806 15.34752775329064 URSA MAIOR 1 42776U 17036M 23145.67219805 .00019578 00000-0 54957-3 0 9999 2 42776 97.1548 177.6512 0010454 171.0874 189.0558 15.36533866329133 Max Valier Sat 1 42778U 17036P 23145.59503361 .00021175 00000-0 56953-3 0 9999 2 42778 97.1572 180.9865 0009343 168.5844 191.5615 15.37858424329259 Pegasus 1 42784U 17036V 23145.56529435 .00035103 00000-0 72940-3 0 9993 2 42784 97.1486 183.2850 0008653 162.6673 197.4873 15.45547512329486 NUDATSat 1 42787U 17036Y 23145.72952475 .01336893 10861-2 18982-2 0 9992 2 42787 97.1282 194.2457 0010136 227.0935 132.9497 16.05792379330044 SUCHAI 1 1 42788U 17036Z 23145.65751757 .00068289 00000-0 10372-2 0 9992 2 42788 97.1464 186.8389 0008320 159.0242 201.1355 15.54314122329796 SKCUBE 1 42789U 17036AA 23145.59374498 .00049002 00000-0 88152-3 0 9993 2 42789 97.1473 185.3531 0008163 158.6039 201.5555 15.49653144329615 VZLUSAT 1 1 42790U 17036AB 23144.66187965 .00624088 16060-3 17564-2 0 9990 2 42790 97.1308 192.6569 0007966 204.3561 155.7339 15.93474931329990 VENTA 1 1 42791U 17036AC 23145.58721447 .00038085 00000-0 78397-3 0 9994 2 42791 97.1502 184.4798 0008034 159.5568 200.6005 15.45812096329541 Robusta 1B 1 42792U 17036AD 23145.66787029 .00057046 00000-0 92081-3 0 9996 2 42792 97.1441 186.5763 0007483 155.3580 204.8033 15.52680389329716 D-SAT 1 42794U 17036AF 23145.72381413 .00005534 00000-0 43972-3 0 9992 2 42794 97.4648 138.8315 0117402 18.3859 342.1552 14.95508147322603 TechnoSat 1 42829U 17042E 23144.54001060 .00002043 00000-0 19873-3 0 9999 2 42829 97.3905 343.3982 0012212 309.0657 50.9476 14.93514811318965 AO-91 1 43017U 17073E 23145.62759018 .00006615 00000-0 46327-3 0 9999 2 43017 97.6330 30.8610 0235344 143.4485 218.3056 14.85780558297838 PICSAT 1 43132U 18004X 23145.73903460 .00068155 00000-0 10064-2 0 9991 2 43132 97.3290 228.3660 0006077 193.3988 166.7105 15.55107357299053 AO-92 1 43137U 18004AC 23145.72894162 .00030742 00000-0 66082-3 0 9996 2 43137 97.3286 224.7026 0005914 205.3567 154.7392 15.44598042298838 TianYi 2 1 43155U 18008A 23145.87939973 .00015410 00000-0 62100-3 0 9998 2 43155 97.2997 198.9449 0013375 35.9122 324.3012 15.24846242295254 Zhou Enlai 1 43156U 18008B 23145.83154647 .00017601 00000-0 69901-3 0 9992 2 43156 97.3042 198.9809 0010961 38.0540 322.1470 15.25334136295173 TianYi 6 1 43158U 18008D 23145.72356708 .00014097 00000-0 61190-3 0 9992 2 43158 97.3046 195.9162 0011267 42.3050 317.9054 15.22375795295007 S-Net D 1 43186U 18014G 23145.70802902 .00002442 00000-0 19904-3 0 9997 2 43186 97.6367 49.9326 0013212 232.2667 127.7360 15.00343773290181 S-Net B 1 43187U 18014H 23145.70898644 .00002473 00000-0 20152-3 0 9997 2 43187 97.6355 49.8651 0013420 230.7674 129.2360 15.00332785290189 S-Net A 1 43188U 18014J 23145.70914803 .00002465 00000-0 20092-3 0 9998 2 43188 97.6361 49.9511 0013430 230.8604 129.1427 15.00335506290185 S-Net C 1 43189U 18014K 23145.71114503 .00002534 00000-0 20650-3 0 9996 2 43189 97.6340 49.8469 0013767 227.6937 132.3120 15.00317468288731 Shaonian Xing 1 43199U 18015H 23145.75314030 .00138280 00000-0 11154-2 0 9995 2 43199 97.5439 303.6231 0009244 238.9636 121.0718 15.70403538296293 CubeBel-1 1 43666U 18083E 23145.74774863 .00028082 00000-0 78213-3 0 9990 2 43666 97.3820 177.2409 0010154 188.0087 172.0996 15.36713648253759 Changshagaoxin 1 43669U 18083H 23145.73350090 .00022544 00000-0 69655-3 0 9991 2 43669 97.3810 171.9741 0007756 184.7864 175.3306 15.33510503253507 Ten-Koh 1 43677U 18084G 23145.62909362 .00001988 00000-0 19714-3 0 9991 2 43677 98.0107 285.1102 0014329 219.2750 140.7430 14.92920494248690 PO-101 1 43678U 18084H 23145.87679016 .00001810 00000-0 17822-3 0 9991 2 43678 98.0201 289.4020 0008539 229.9567 130.0903 14.93357762248939 QO-100 1 43700U 18090A 23145.74534257 .00000150 00000-0 00000+0 0 9999 2 43700 0.0119 350.7010 0001329 101.0838 85.3874 1.00272833 16704 Reaktor Hello World 1 43743U 18096AA 23145.69941948 .00055595 00000-0 80154-3 0 9990 2 43743 97.3165 232.1304 0009474 252.7722 107.2496 15.55781005250676 MinXSS-2 1 43758U 18099A 23145.73265714 .00006876 00000-0 53729-3 0 9990 2 43758 97.5966 210.2997 0016530 197.5409 162.5247 15.01300711244377 AO-95 1 43770U 18099N 23145.74073712 .00004226 00000-0 34724-3 0 9991 2 43770 97.5763 207.8868 0011371 200.9412 159.1348 14.99645535244248 RANGE-B 1 43772U 18099Q 23145.70430067 .00006332 00000-0 49621-3 0 9991 2 43772 97.5799 210.5424 0008653 164.4693 195.6799 15.01297908244293 RANGE-A 1 43773U 18099R 23145.69746141 .00003387 00000-0 28877-3 0 9990 2 43773 97.5633 205.9945 0012925 188.4115 171.6893 14.98330082244193 MOVE-II 1 43780U 18099Y 23145.74244651 .00008850 00000-0 65561-3 0 9994 2 43780 97.5695 210.2502 0008522 223.1971 136.8587 15.03327063244366 SNUSat 2 1 43782U 18099AA 23145.70430488 .00004354 00000-0 35852-3 0 9992 2 43782 97.5711 208.3637 0013002 186.0999 174.0069 14.99526899244260 SnugLite 1 43784U 18099AC 23145.73043910 .00005705 00000-0 46115-3 0 9992 2 43784 97.5746 208.0388 0010756 185.6583 174.4521 15.00136079244309 ITASat 1 1 43786U 18099AE 23145.67157987 .00004140 00000-0 34273-3 0 9991 2 43786 97.5795 208.8507 0012805 188.5803 171.5203 14.99349021244271 EAGLET 1 1 43790U 18099AJ 23145.70698064 .00003205 00000-0 26922-3 0 9999 2 43790 97.5739 209.3696 0012959 196.6427 163.4373 14.98943608244011 ESEO 1 43792U 18099AL 23145.71057695 .00002197 00000-0 19285-3 0 9994 2 43792 97.5693 207.9107 0012660 193.4318 166.6569 14.97548293244029 CSIM 1 43793U 18099AM 23145.77790920 .00008840 00000-0 64564-3 0 9997 2 43793 97.5781 211.5761 0016102 195.2280 164.8463 15.03789354244215 Astrocast 0.1 1 43798U 18099AS 23145.76308957 .00007794 00000-0 59373-3 0 9995 2 43798 97.5873 210.9396 0013435 168.3034 191.8506 15.02263545244400 JO-97 1 43803U 18099AX 23145.71201029 .00005582 00000-0 44579-3 0 9994 2 43803 97.5687 208.8618 0012782 167.1584 192.9968 15.00589263244325 Suomi 100 1 43804U 18099AY 23145.70338399 .00004975 00000-0 40075-3 0 9997 2 43804 97.5672 208.6769 0016988 185.0443 175.0613 15.00261075244327 Al Farabi 2 1 43805U 18099AZ 23145.73763671 .00007339 00000-0 56514-3 0 9998 2 43805 97.5560 209.7071 0011957 174.2427 185.8937 15.01884510244385 CHOMPTT 1 43855U 18104G 23144.58234071 .00020205 00000-0 51354-3 0 9993 2 43855 85.0307 182.2006 0013998 59.2950 300.9679 15.39391681246944 ISAT 1 43879U 18111D 23145.71510357 .00005117 00000-0 39285-3 0 9991 2 43879 97.6469 50.4927 0012190 229.5512 130.4650 15.02149928238946 UWE-4 1 43880U 18111E 23145.70717128 .00004680 00000-0 36125-3 0 9991 2 43880 97.6328 51.2473 0016006 247.2853 112.6680 15.01947883238997 Sparrow 1 43881U 18111F 23145.72784973 .00005862 00000-0 44540-3 0 9999 2 43881 97.6529 51.8181 0008256 284.5487 75.4822 15.02515622239019 Lume 1 1 43908U 18111AJ 23145.61794216 .00029944 00000-0 63077-3 0 9991 2 43908 97.1423 29.2278 0010285 282.5432 77.4667 15.45160196245909 FO-99 1 43937U 19003F 23145.59485497 .00047975 00000-0 83235-3 0 9991 2 43937 97.0882 173.1166 0011366 10.0790 350.0689 15.50651272242543 AstroCast 0.2 1 44083U 19018F 23144.65177711 .00062115 00000-0 11760-2 0 9999 2 44083 97.2671 204.2699 0002798 338.7718 21.3416 15.48160646230775 AISTechSat 3 1 44103U 19018AB 23145.74252354 .00023888 00000-0 59895-3 0 9996 2 44103 97.2542 204.3726 0007942 4.9616 355.1707 15.40006271231050 AISat 1 1 44104U 19018AC 23145.74840730 .00017490 00000-0 34881-3 0 9998 2 44104 97.3723 236.6987 0040225 341.5460 18.4328 15.46028176232253 Prox-1 1 44339U 19036A 23144.50439903 .00005529 00000-0 11042-2 0 9990 2 44339 23.9992 195.0722 0009872 8.7136 351.3526 14.59178082208220 Move-IIb 1 44398U 19038N 23143.91631799 .00042638 00000-0 11235-2 0 9994 2 44398 97.6600 125.6212 0014719 31.7775 328.4354 15.38286305214938 SONATE 1 44400U 19038Q 23145.86478571 .00009377 00000-0 42493-3 0 9995 2 44400 97.6833 123.0607 0021865 35.1933 325.0740 15.20867873214842 BeeSat 9 1 44412U 19038AC 23144.39619976 .00024229 00000-0 85978-3 0 9999 2 44412 97.6745 124.2750 0016872 38.3138 321.9296 15.28921154214520 JAISAT-1 1 44419U 19038F 23144.22006317 .00024399 00000-0 85765-3 0 9999 2 44419 97.6737 125.1646 0015987 36.1774 324.0543 15.29242778214876 Taurus 1 1 44530U 19059C 23145.78682969 .00003990 00000-0 10423-2 0 9993 2 44530 98.5529 253.2474 0014212 157.4369 202.7452 14.49919787195396 Duchifat 3 1 44854U 19089C 23145.59943900 .00006879 00000-0 46840-3 0 9991 2 44854 36.9609 226.2470 0008506 137.1974 222.9432 15.05935165189433 OPS-SAT 1 44878U 19092F 23144.25295348 .00027775 00000-0 85750-3 0 9990 2 44878 97.4764 332.7125 0009030 213.3971 146.6703 15.33482949190129 TO-108 1 44881U 19093C 23145.82114617 .00001021 00000-0 13353-3 0 9994 2 44881 97.8615 224.6532 0015572 146.7658 213.4536 14.82488656185486 FloripaSat 1 1 44885U 19093G 23145.78652916 .00003883 00000-0 45352-3 0 9994 2 44885 97.8674 227.1995 0014657 149.3319 210.8756 14.85648813185629 RS-44 1 44909U 19096E 23144.61127017 .00000014 00000-0 16709-4 0 9992 2 44909 82.5232 3.6148 0216437 241.9825 115.9232 12.79720718159143 BY70-2 1 45857U 20042B 23145.78122732 .00017371 00000-0 18158-2 0 9998 2 45857 97.9251 225.6171 0010076 89.3122 270.9250 14.89692079156201 UPMSat 2 1 46276U 20061E 23145.75175259 .00007998 00000-0 34189-3 0 9991 2 46276 97.3468 213.8052 0002656 79.6702 280.4834 15.23107594150872 AmicalSat 1 46287U 20061R 23144.17669157 .00012152 00000-0 57458-3 0 9995 2 46287 97.4006 211.1459 0003169 146.6790 213.4645 15.19528082150068 SALSAT 1 46495U 20068K 23144.62552300 .00003450 00000-0 23088-3 0 9997 2 46495 97.7687 92.3857 0015092 193.7379 166.3439 15.07535531145528 CAPE 3 1 47309U 21002A 23144.42035459 .00029687 00000-0 74497-3 0 9990 2 47309 60.6760 151.5939 0015974 169.9420 190.1998 15.39770425130622 AO-109 1 47311U 21002C 23144.58579698 .00019870 00000-0 53387-3 0 9996 2 47311 60.6794 149.1921 0015959 162.1050 198.0610 15.37877584130656 MiTEE 1 1 47314U 21002F 23144.48055992 .00393209 00000-0 16841-2 0 9998 2 47314 60.6623 116.2466 0003016 80.6090 279.5367 15.83729429131221 ExoCube 2 1 47319U 21002L 23144.57393022 .00019652 00000-0 54085-3 0 9992 2 47319 60.6775 151.2955 0016224 166.4185 193.7349 15.37135526130582 UVSQ-SAT 1 47438U 21006AB 23144.65732754 .00013460 00000-0 56180-3 0 9995 2 47438 97.3851 202.1124 0011003 157.9903 202.1809 15.23724060129062 YUSAT 1 1 47439U 21006AC 23144.65419744 .00017499 00000-0 68109-3 0 9997 2 47439 97.3860 202.7786 0010573 156.2717 203.9011 15.26014054129106 SOMP 2b 1 47445U 21006AJ 23144.63469246 .00013437 00000-0 57279-3 0 9998 2 47445 97.3821 201.3785 0010739 162.3859 197.7752 15.23011929129032 IDEASSat 1 47458U 21006AX 23145.59308466 .00012237 00000-0 53020-3 0 9991 2 47458 97.3914 203.0918 0010190 158.0586 202.1089 15.22484682129163 CubeSX-Sirius-HSE 1 47951U 21022V 23145.72564855 .00009258 00000-0 52487-3 0 9993 2 47951 97.4991 43.4506 0020578 56.1086 304.2099 15.13020961119632 CubeSX-HSE 1 47952U 21022W 23145.76595458 .00008511 00000-0 48201-3 0 9991 2 47952 97.4990 43.5355 0020569 55.7130 304.6045 15.13085399119642 KSU-Cubesat 1 47954U 21022Y 23144.64054990 .00009476 00000-0 52458-3 0 9990 2 47954 97.5001 42.7733 0020145 58.6460 301.6739 15.13873850119214 GRBAlpha 1 47959U 21022AD 23145.75377479 .00008437 00000-0 47690-3 0 9996 2 47959 97.4991 43.6025 0020336 55.9623 304.3536 15.13161542118462 Orbicraft-Zorkiy 1 47960U 21022AE 23145.78713229 .00010106 00000-0 56009-3 0 9998 2 47960 97.5023 44.0308 0019948 54.9153 305.3946 15.13818850119170 STECCO 1 47962U 21022AG 23145.74521406 .00017868 00000-0 84400-3 0 9998 2 47962 97.4989 46.1786 0014529 47.9493 312.2975 15.19386808118632 DO-111 1 47963U 21022AH 23144.67424728 .00153022 00000-0 23991-2 0 9999 2 47963 97.4983 52.1031 0009211 65.3761 294.8450 15.53113696118938 MO-110 1 47964U 21022AJ 23144.68754290 .00017698 00000-0 81767-3 0 9995 2 47964 97.5004 45.6936 0016577 46.4318 313.8290 15.20124912118500 FEES 1 48082U 21022AL 23144.66721455 .00029868 00000-0 11636-2 0 9991 2 48082 97.4999 46.7090 0012174 45.5659 314.6573 15.25855761118279 TUBIN 1 48900U 21059X 23145.69569564 .00007523 00000-0 36154-3 0 9992 2 48900 97.5972 279.1624 0008938 8.6168 351.5217 15.19084488105761 IT-SPINS 1 49017U 21013G 23144.62570619 .00025580 00000-0 61494-3 0 9995 2 49017 51.5900 194.1279 0005719 260.8478 99.1859 15.41133118106076 LEDSAT 1 49069U 21073D 23145.71483280 .00007679 00000-0 42611-3 0 9995 2 49069 97.4824 216.9755 0024151 194.2755 165.7797 15.13781922 97507 CUTE 1 49263U 21088D 23145.73373551 .00009202 00000-0 59575-3 0 9999 2 49263 97.5444 211.9256 0016918 343.6416 16.4264 15.08256340 90902 TeikyoSat 4 1 49396U 21102B 23145.68370651 .00002127 00000-0 16572-3 0 9994 2 49396 97.5170 198.3646 0015784 156.6377 203.5569 15.02163543 84393 Z-Sat 1 49399U 21102E 23145.74211099 .00003310 00000-0 23805-3 0 9996 2 49399 97.4864 199.5286 0023413 142.4706 217.8160 15.04699745 84514 KOSEN 1 1 49402U 21102H 23145.70923349 .00004883 00000-0 33375-3 0 9994 2 49402 97.4778 199.9686 0022132 132.8807 227.4284 15.06401427 84573 HO-113 1 50466U 21131B 23145.77876951 .00000672 00000-0 23246-3 0 9999 2 50466 98.5515 227.3935 0004048 190.0922 170.0184 14.38894015 74135 Tevel-3 1 50988U 22002E 23145.73381749 .00017197 00000-0 70528-3 0 9993 2 50988 97.4336 212.8652 0006227 316.6291 43.4456 15.24299966 75343 Tevel-8 1 50989U 22002F 23145.75159995 .00017568 00000-0 72176-3 0 9995 2 50989 97.4352 212.9396 0006256 315.3146 44.7586 15.24235800 75340 Tevel-5 1 50998U 22002Q 23145.75590537 .00017631 00000-0 70597-3 0 9992 2 50998 97.4330 213.2449 0007362 308.9603 51.0978 15.25092517 75370 Tevel-6 1 50999U 22002R 23145.75442709 .00017428 00000-0 69790-3 0 9997 2 50999 97.4328 213.2385 0007367 308.6692 51.3886 15.25091775 75373 Tevel-1 1 51013U 22002AF 23145.74295337 .00017469 00000-0 71730-3 0 9999 2 51013 97.4331 212.8204 0006169 316.0201 44.0545 15.24255962 75345 Grizu-263a 1 51025U 22002AT 23145.72601908 .00071304 00000-0 16567-2 0 9999 2 51025 97.4483 217.7555 0006181 282.1274 77.9280 15.42073533 75596 NO-116 1 51031U 22002AZ 23145.70970122 .00029471 00000-0 97744-3 0 9996 2 51031 97.4457 215.5089 0007798 304.5417 55.5087 15.31183719 75464 IRIS-A 1 51044U 22002BN 23145.67874782 .00008679 00000-0 41762-3 0 9997 2 51044 97.4350 211.4851 0006980 325.9322 34.1463 15.18996874 75242 Tevel-7 1 51062U 22002CG 23145.75284471 .00016893 00000-0 69390-3 0 9990 2 51062 97.4348 212.9148 0006223 314.6317 45.4412 15.24250488 75344 Tevel-4 1 51063U 22002CH 23145.75818724 .00016820 00000-0 69190-3 0 9993 2 51063 97.4348 212.9053 0006207 315.0033 45.0700 15.24202673 75341 Tevel-2 1 51069U 22002CP 23145.73566822 .00017411 00000-0 71399-3 0 9997 2 51069 97.4333 212.8392 0006195 316.2029 43.8716 15.24300351 75345 DELFI-PQ 1 51074U 22002CU 23145.77264741 .00034459 00000-0 10343-2 0 9994 2 51074 97.4592 217.8001 0007847 334.6603 25.4254 15.34342443 75563 SO-115 1 51080U 22002DA 23144.41859099 .00023375 00000-0 86151-3 0 9993 2 51080 97.4612 215.1105 0009419 349.5843 10.5199 15.27775181 75268 SO-114 1 51081U 22002DB 23144.14700498 .00023603 00000-0 86604-3 0 9999 2 51081 97.4605 214.8082 0009712 350.0240 10.0805 15.27917284 75222 OreSat0 1 52017U 22026K 23144.54396472 .00014371 00000-0 58917-3 0 9990 2 52017 97.5097 146.8801 0023662 161.7056 198.5038 15.24111444 65942 Planetum 1 1 52738U 22057G 23144.31793073 .00013578 00000-0 63785-3 0 9994 2 52738 97.5359 260.3025 0008073 77.9880 282.2259 15.19706566 55039 Foresail-1 1 52766U 22057AL 23145.73335634 .00009304 00000-0 44603-3 0 9997 2 52766 97.5475 262.6010 0012943 53.4676 306.7748 15.19057393 55279 SNUGLITE 2 1 52899U 22065F 23144.63177971 .00001220 00000-0 26784-3 0 9998 2 52899 98.0663 290.1337 0006713 293.7635 66.2861 14.59250837 47424 CTIM 1 52950U 22074G 23144.35278449 .00029853 00000-0 71063-3 0 9999 2 52950 44.9974 132.3073 0011769 73.8309 286.3874 15.41078351 49920 IO-117 1 53106U 22080B 23143.46060132 -.00000003 00000-0 00000-0 0 9996 2 53106 70.1622 328.3166 0008351 190.4810 169.5677 6.42557191 20164 AstroBioCubeSat 1 53107U 22080C 23025.30817895 -.00000003 00000-0 00000-0 0 9995 2 53107 70.1710 9.4734 0013545 210.3158 149.6718 6.42110537 12478 SelfieSat 1 53951U 22057BC 23145.75643750 .00016359 00000-0 73354-3 0 9990 2 53951 97.5404 262.3065 0009550 65.6794 294.5437 15.21254921 55279 FO-118 1 54684U 22167C 23145.73397465 .00011238 00000-0 62832-3 0 9993 2 54684 97.5598 283.4781 0014251 56.7060 303.5533 15.13563251 25283 KILICSAT 1 56181U 23054D 23145.70237700 .00010683 00000-0 46796-3 0 9999 2 56181 97.4066 40.9206 0011764 110.7563 249.4935 15.22131613 6757 SSS-2B 1 56184U 23054G 23145.69918332 .00008791 00000-0 38398-3 0 9993 2 56184 97.4127 40.9583 0013103 111.4074 248.8562 15.22271587 6754 CIRBE 1 56188U 23054L 23145.69114221 .00012513 00000-0 53886-3 0 9998 2 56188 97.4080 40.9433 0012123 105.6053 254.6522 15.22669437 6759 INSPIRE-Sat 7 1 56211U 23054AK 23145.65304894 .00015448 00000-0 63390-3 0 9999 2 56211 97.4107 41.0089 0017031 92.2781 268.0407 15.24187053 6759 RoseyCubesat 1 1 56212U 23054AL 23145.64912365 .00016401 00000-0 66879-3 0 9992 2 56212 97.4113 41.0173 0017475 91.6695 268.6544 15.24377274 6754 ARKSAT 1 1 56311U 98067VC 23144.09208095 .00058009 00000-0 87058-3 0 9996 2 56311 51.6391 87.4107 0006872 22.5225 337.6066 15.54312375 4619 AuroraSat 1 56312U 98067VD 23144.34836526 .00068801 00000-0 10199-2 0 9993 2 56312 51.6379 86.1213 0006328 23.4798 336.6480 15.54581256 4683 Ex-Alta 2 1 56313U 98067VE 23144.02822600 .00057596 00000-0 86503-3 0 9999 2 56313 51.6385 87.7342 0006554 21.3148 338.8114 15.54296936 4628 LightCube 1 56314U 98067VF 23144.09299958 .00067282 00000-0 10013-2 0 9996 2 56314 51.6386 87.4157 0006156 4.1617 355.9424 15.54484497 4668 NEUDOSE 1 56315U 98067VG 23144.23159992 .00044786 00000-0 69838-3 0 9990 2 56315 51.6391 86.8407 0007078 3.4223 356.6815 15.53368363 4636 YukonSat 1 56316U 98067VH 23143.07049425 .00055435 00000-0 85289-3 0 9992 2 56316 51.6393 92.5838 0006042 1.7161 358.3728 15.53653848 4472 /EX